This is the latest recevied weather packets stored in our database for station/object EA3HRE-10. If no packets are shown the sender has not sent any weather packets the latest 10 day(s).
| Time | Temp. | Humidity | Pressure | Rain* | Wind** | Luminosity | Snow |
|---|---|---|---|---|---|---|---|
| 1787994587 | 27.22° C | 40% | 1019.8 hPa | - | - | - | - |
| 1787993695 | 27.22° C | 37% | 1019.7 hPa | - | - | - | - |
| 1787992786 | 26.67° C | 37% | 1019.5 hPa | - | - | - | - |
| 1787991887 | 26.67° C | 37% | 1019.4 hPa | - | - | - | - |
| 1787990987 | 26.67° C | 37% | 1019.4 hPa | - | - | - | - |
| 1787990086 | 26.67° C | 37% | 1019.2 hPa | - | - | - | - |
| 1787989182 | 26.11° C | 38% | 1019.2 hPa | - | - | - | - |
| 1787988282 | 26.11° C | 39% | 1019.1 hPa | - | - | - | - |
| 1787987386 | 25.56° C | 38% | 1018.9 hPa | - | - | - | - |
| 1787986568 | 25.56° C | 39% | 1019.1 hPa | - | - | - | - |
| 1787985668 | 25° C | 39% | 1018.9 hPa | - | - | - | - |
| 1787984768 | 25° C | 39% | 1018.9 hPa | - | - | - | - |
| 1787983868 | 25.56° C | 39% | 1018.8 hPa | - | - | - | - |
| 1787982968 | 25.56° C | 39% | 1018.8 hPa | - | - | - | - |
| 1787982068 | 25.56° C | 38% | 1018.7 hPa | - | - | - | - |
| 1787981168 | 25.56° C | 40% | 1018.7 hPa | - | - | - | - |
| 1787980268 | 25.56° C | 39% | 1018.5 hPa | - | - | - | - |
| 1787979368 | 25.56° C | 39% | 1018.5 hPa | - | - | - | - |
| 1787978477 | 25.56° C | 38% | 1018.3 hPa | - | - | - | - |
| 1787977569 | 25.56° C | 38% | 1018.3 hPa | - | - | - | - |
| 1787976668 | 26.11° C | 37% | 1018.2 hPa | - | - | - | - |
| 1787975767 | 25.56° C | 37% | 1018.1 hPa | - | - | - | - |
| 1787974867 | 26.11° C | 37% | 1018.3 hPa | - | - | - | - |
| 1787973967 | 26.11° C | 36% | 1018.3 hPa | - | - | - | - |
| 1787973067 | 26.11° C | 35% | 1018.3 hPa | - | - | - | - |
* Rain since midnight (hover to see other rain measurements)
** Current wind speed in m/s (hover to see current wind gust speed)